Location: McFarlands Corners
(41.4117°N, 81.3382°W)
Time: 12:33:06
(UTC+00:00)

Tiros 1 - Pass Details

Date: 19 February 2026
Orbit: 618 x 650 km, 48.4° (Epoch: 16 March)

Event Time Altitude Azimuth Distance (km) Brightness Sun altitude
Rises 20:20:47 0° 290° (WNW) 2,888 10.8 25.7°
Reaches altitude 10° 20:23:30 10° 274° (W) 1,977 10.3 25.3°
Maximum altitude 20:26:57 21° 225° (SW) 1,371 12.4 24.9°
Drops below altitude 10° 20:30:23 10° 175° (S) 1,971 10.3 24.4°
Sets 20:33:07 0° 160° (SSE) 2,875 10.8 24.0°
